User: anonymous   Login
Location: Cutler
(25.6150°N, 80.3110°W)
Time: 23:50:08
(UTC-05:00)
Language:

Cosmos 2360 Rocket - Orbit

View from above orbital plane
View from above orbital plane
View from above satellite
View from above satellite

Ground track
Ground track

The orbit data is extracted from the following two-line orbital elements,

1 25407U 98045B   15029.46876073  .00000143  00000-0  97206-4 0  6704
2 25407 071.0110 069.0244 0005494 090.9877 002.1253 14.15690425853092
Epoch (UTC): 29 January 2015 11:15:00
Eccentricity: 0.0005494
inclination: 71.0110°
perigee height: 836 km
apogee height: 844 km
right ascension of ascending node: 69.0244°
argument of perigee: 90.9877°
revolutions per day: 14.15690425
mean anomaly at epoch: 2.1253°
orbit number at epoch: 85309

The dashed part of the orbit path shows where the satellite is in the earth's shadow,  

DLR